When you browse on this site, cookies collect data to enhance your experience and personalize the content and advertising you see.
Visit our Privacy Policy to learn more. By continuing to use the site, you agree to this use of cookies and data.
  • In Netherlands
  • List of Countries
  • For 7 days
  • Water Temperature
  • Satellite Maps
  • Weather Map
  • Weather Widgets
  • user-avatar
    Login

    Hourly Weather A'ali

    Today, 25 March, Monday

    Time Temperature Precipitation Wind Pressure Humidity
    00:00 +23°C° 0 mm 9 mps 753 mmHg 75%
    01:00 +23°C° 0 mm 9 mps 752 mmHg 75%
    02:00 +23°C° 0 mm 9 mps 752 mmHg 75%
    03:00 +23°C° 0 mm 9 mps 751 mmHg 75%
    04:00 +23°C° 0.1 mm 9 mps 751 mmHg 75%
    05:00 +23°C° 0.1 mm 9 mps 751 mmHg 75%
    06:00 +23°C° 0.1 mm 9 mps 751 mmHg 75%
    07:00 +24°C° 0.9 mm 9 mps 752 mmHg 67%
    08:00 +26°C° 0.9 mm 8 mps 753 mmHg 60%
    09:00 +27°C° 0.9 mm 7 mps 753 mmHg 53%
    10:00 +29°C° 0.5 mm 8 mps 753 mmHg 48%
    11:00 +31°C° 0.5 mm 9 mps 753 mmHg 44%
    12:00 +32°C° 0.5 mm 10 mps 753 mmHg 39%
    13:00 +32°C° 0 mm 10 mps 752 mmHg 38%
    14:00 +32°C° 0 mm 10 mps 752 mmHg 37%
    15:00 +33°C° 0 mm 10 mps 751 mmHg 36%
    16:00 +32°C° 0.1 mm 10 mps 751 mmHg 40%
    17:00 +31°C° 0.1 mm 11 mps 751 mmHg 44%
    18:00 +29°C° 0.1 mm 12 mps 750 mmHg 48%
    19:00 +28°C° 0 mm 10 mps 752 mmHg 52%
    20:00 +27°C° 0 mm 9 mps 753 mmHg 56%
    21:00 +26°C° 0 mm 7 mps 754 mmHg 60%
    22:00 +26°C° 0.3 mm 6 mps 754 mmHg 63%
    23:00 +26°C° 0.3 mm 5 mps 755 mmHg 66%

    Tomorrow, 26 March, Tuesday

    Time Temperature Precipitation Wind Pressure Humidity
    00:00 +25°C° 0.3 mm 4 mps 755 mmHg 68%
    01:00 +24°C° 1.1 mm 6 mps 755 mmHg 70%
    02:00 +23°C° 1.1 mm 8 mps 755 mmHg 73%
    03:00 +23°C° 1.1 mm 11 mps 754 mmHg 75%
    04:00 +23°C° 0.1 mm 11 mps 754 mmHg 75%
    05:00 +23°C° 0.1 mm 11 mps 754 mmHg 75%
    06:00 +23°C° 0.1 mm 11 mps 754 mmHg 75%
    07:00 +23°C° 0 mm 10 mps 754 mmHg 74%
    08:00 +24°C° 0 mm 9 mps 755 mmHg 73%
    09:00 +24°C° 0 mm 9 mps 756 mmHg 72%
    10:00 +26°C° 0 mm 7 mps 756 mmHg 65%
    11:00 +28°C° 0 mm 4 mps 756 mmHg 57%
    12:00 +29°C° 0 mm 2 mps 756 mmHg 49%
    13:00 +28°C° 0 mm 3 mps 756 mmHg 54%
    14:00 +28°C° 0 mm 4 mps 755 mmHg 58%
    15:00 +27°C° 0 mm 5 mps 755 mmHg 63%
    16:00 +27°C° 0 mm 4 mps 756 mmHg 65%
    17:00 +26°C° 0 mm 4 mps 756 mmHg 67%
    18:00 +26°C° 0 mm 4 mps 757 mmHg 69%
    19:00 +25°C° 0 mm 3 mps 757 mmHg 68%
    20:00 +25°C° 0 mm 3 mps 758 mmHg 66%
    21:00 +25°C° 0 mm 2 mps 759 mmHg 65%
    22:00 +25°C° 0 mm 2 mps 759 mmHg 67%
    23:00 +25°C° 0 mm 1 mps 759 mmHg 69%

    Day after tomorrow, 27 March, Wednesday

    Time Temperature Precipitation Wind Pressure Humidity
    00:00 +22°C° 0 mm 0 mps 759 mmHg 71%
    01:00 +24°C° 0 mm 1 mps 758 mmHg 70%
    02:00 +24°C° 0 mm 2 mps 758 mmHg 70%
    03:00 +24°C° 0 mm 3 mps 758 mmHg 69%
    04:00 +22°C° 0 mm 4 mps 758 mmHg 72%
    05:00 +22°C° 0 mm 5 mps 759 mmHg 74%
    06:00 +22°C° 0 mm 6 mps 759 mmHg 76%
    07:00 +22°C° 0 mm 5 mps 760 mmHg 75%
    08:00 +23°C° 0 mm 5 mps 761 mmHg 73%
    09:00 +25°C° 0 mm 4 mps 761 mmHg 72%
    10:00 +25°C° 0 mm 4 mps 761 mmHg 68%
    11:00 +26°C° 0 mm 3 mps 761 mmHg 63%
    12:00 +27°C° 0 mm 2 mps 760 mmHg 59%
    13:00 +27°C° 0 mm 3 mps 760 mmHg 56%
    14:00 +28°C° 0 mm 3 mps 759 mmHg 53%
    15:00 +28°C° 0 mm 3 mps 759 mmHg 49%
    16:00 +27°C° 0 mm 3 mps 759 mmHg 53%
    17:00 +26°C° 0 mm 4 mps 759 mmHg 57%
    18:00 +25°C° 0 mm 4 mps 759 mmHg 60%
    19:00 +25°C° 0 mm 4 mps 760 mmHg 62%
    20:00 +23°C° 0 mm 4 mps 761 mmHg 64%
    21:00 +23°C° 0 mm 4 mps 761 mmHg 66%
    22:00 +23°C° 0 mm 4 mps 761 mmHg 67%
    23:00 +22°C° 0 mm 5 mps 760 mmHg 69%

    28 March, Thursday

    Time Temperature Precipitation Wind Pressure Humidity
    00:00 +22°C° 0 mm 6 mps 760 mmHg 70%
    01:00 +22°C° 0 mm 6 mps 759 mmHg 70%
    02:00 +21°C° 0 mm 6 mps 759 mmHg 70%
    03:00 +21°C° 0 mm 5 mps 758 mmHg 70%
    04:00 +21°C° 0 mm 5 mps 759 mmHg 67%
    05:00 +21°C° 0 mm 4 mps 759 mmHg 63%
    06:00 +21°C° 0 mm 3 mps 759 mmHg 60%
    07:00 +22°C° 0 mm 3 mps 760 mmHg 54%
    08:00 +24°C° 0 mm 2 mps 760 mmHg 48%
    09:00 +25°C° 0 mm 2 mps 760 mmHg 42%
    10:00 +26°C° 0 mm 1 mps 760 mmHg 39%
    11:00 +27°C° 0 mm 1 mps 760 mmHg 37%
    12:00 +27°C° 0 mm 1 mps 759 mmHg 34%
    13:00 +28°C° 0 mm 1 mps 759 mmHg 32%
    14:00 +29°C° 0 mm 2 mps 759 mmHg 30%
    15:00 +29°C° 0 mm 2 mps 758 mmHg 28%
    16:00 +29°C° 0 mm 4 mps 758 mmHg 31%
    17:00 +28°C° 0 mm 5 mps 759 mmHg 34%
    18:00 +27°C° 0 mm 6 mps 759 mmHg 37%
    19:00 +26°C° 0 mm 6 mps 759 mmHg 43%
    20:00 +24°C° 0 mm 6 mps 760 mmHg 50%
    21:00 +23°C° 0 mm 6 mps 760 mmHg 56%
    22:00 +22°C° 0 mm 6 mps 760 mmHg 55%
    23:00 +22°C° 0 mm 6 mps 760 mmHg 55%

    29 March, Friday

    Time Temperature Precipitation Wind Pressure Humidity
    00:00 +22°C° 0 mm 5 mps 760 mmHg 54%
    01:00 +22°C° 0 mm 5 mps 760 mmHg 52%
    02:00 +22°C° 0 mm 5 mps 759 mmHg 51%
    03:00 +22°C° 0 mm 5 mps 759 mmHg 50%
    04:00 +22°C° 0 mm 5 mps 759 mmHg 54%
    05:00 +21°C° 0 mm 5 mps 760 mmHg 58%
    06:00 +21°C° 0 mm 5 mps 760 mmHg 63%
    07:00 +22°C° 0 mm 4 mps 760 mmHg 57%
    08:00 +23°C° 0 mm 4 mps 761 mmHg 51%
    09:00 +25°C° 0 mm 4 mps 761 mmHg 45%
    10:00 +26°C° 0 mm 5 mps 761 mmHg 41%
    11:00 +27°C° 0 mm 5 mps 760 mmHg 37%
    12:00 +28°C° 0 mm 5 mps 760 mmHg 32%
    13:00 +27°C° 0 mm 6 mps 759 mmHg 32%
    14:00 +27°C° 0 mm 6 mps 759 mmHg 32%
    15:00 +27°C° 0 mm 6 mps 758 mmHg 32%
    16:00 +26°C° 0 mm 6 mps 758 mmHg 36%
    17:00 +25°C° 0 mm 5 mps 758 mmHg 40%
    18:00 +23°C° 0 mm 5 mps 759 mmHg 44%
    19:00 +23°C° 0 mm 5 mps 759 mmHg 46%
    20:00 +22°C° 0 mm 5 mps 759 mmHg 47%
    21:00 +22°C° 0 mm 4 mps 759 mmHg 48%
    22:00 +22°C° 0 mm 4 mps 759 mmHg 49%
    23:00 +22°C° 0 mm 4 mps 759 mmHg 50%

    30 March, Saturday

    Time Temperature Precipitation Wind Pressure Humidity
    00:00 +21°C° 0 mm 4 mps 759 mmHg 50%
    01:00 +21°C° 0 mm 3 mps 758 mmHg 50%
    02:00 +21°C° 0 mm 3 mps 758 mmHg 51%
    03:00 +21°C° 0 mm 2 mps 757 mmHg 51%
    04:00 +21°C° 0 mm 3 mps 757 mmHg 50%
    05:00 +21°C° 0 mm 3 mps 758 mmHg 50%
    06:00 +21°C° 0 mm 3 mps 758 mmHg 50%
    07:00 +22°C° 0 mm 3 mps 758 mmHg 46%
    08:00 +23°C° 0 mm 4 mps 759 mmHg 42%
    09:00 +25°C° 0 mm 4 mps 759 mmHg 38%
    10:00 +25°C° 0.1 mm 3 mps 759 mmHg 35%
    11:00 +26°C° 0.1 mm 3 mps 758 mmHg 33%
    12:00 +26°C° 0.1 mm 3 mps 758 mmHg 30%
    13:00 +27°C° 0.4 mm 3 mps 757 mmHg 31%
    14:00 +27°C° 0.4 mm 4 mps 757 mmHg 32%
    15:00 +27°C° 0.4 mm 4 mps 756 mmHg 33%
    16:00 +27°C° 0 mm 5 mps 756 mmHg 36%
    17:00 +26°C° 0 mm 5 mps 756 mmHg 39%
    18:00 +26°C° 0 mm 5 mps 756 mmHg 42%
    19:00 +26°C° 0 mm 5 mps 757 mmHg 42%
    20:00 +25°C° 0 mm 5 mps 757 mmHg 43%
    21:00 +24°C° 0 mm 6 mps 757 mmHg 44%
    22:00 +25°C° 0 mm 5 mps 757 mmHg 48%
    23:00 +25°C° 0 mm 5 mps 756 mmHg 51%
    Show more